TimeEDT,TemperatureF,Dew PointF,Humidity,Sea Level PressureIn,VisibilityMPH,Wind Direction,Wind SpeedMPH,Gust SpeedMPH,PrecipitationIn,Events,Conditions,WindDirDegrees,DateUTC
12:58 AM,63.1,56.5,79,29.88,10.0,SSE,3.5,-,N/A,,Overcast,150,2013-09-08 04:58:00
1:58 AM,62.4,58.6,87,29.87,10.0,South,2.3,-,N/A,,Overcast,170,2013-09-08 05:58:00
2:46 AM,62.6,59.0,88,29.82,10.0,South,3.5,-,N/A,,Light Drizzle,190,2013-09-08 06:46:00
2:56 AM,62.6,59.0,88,29.81,10.0,South,6.9,-,N/A,,Scattered Clouds,190,2013-09-08 06:56:00
2:58 AM,62.6,59.0,88,29.83,10.0,South,6.9,-,0.00,,Scattered Clouds,190,2013-09-08 06:58:00
3:58 AM,60.6,59.4,96,29.83,10.0,Calm,Calm,-,N/A,,Overcast,0,2013-09-08 07:58:00
4:58 AM,62.1,61.0,96,29.82,10.0,SW,3.5,-,N/A,,Overcast,220,2013-09-08 08:58:00
5:58 AM,62.4,60.6,94,29.81,10.0,SSW,4.6,-,N/A,,Overcast,200,2013-09-08 09:58:00
6:58 AM,61.9,60.4,95,29.83,10.0,Calm,Calm,-,N/A,,Mostly Cloudy,0,2013-09-08 10:58:00
7:58 AM,64.2,61.0,89,29.82,10.0,SSE,3.5,-,N/A,,Overcast,150,2013-09-08 11:58:00
8:58 AM,67.8,59.2,74,29.82,10.0,WSW,5.8,-,N/A,,Overcast,250,2013-09-08 12:58:00
9:37 AM,69.8,60.8,73,29.79,10.0,West,6.9,-,N/A,,Scattered Clouds,270,2013-09-08 13:37:00
9:53 AM,69.8,60.8,73,29.80,10.0,WNW,5.8,-,N/A,,Mostly Cloudy,290,2013-09-08 13:53:00
9:58 AM,70.2,60.6,72,29.83,10.0,NW,8.1,-,N/A,,Mostly Cloudy,310,2013-09-08 13:58:00
10:58 AM,70.2,60.6,72,29.83,10.0,Variable,4.6,-,N/A,,Overcast,0,2013-09-08 14:58:00
11:36 AM,73.4,60.8,65,29.80,10.0,NW,18.4,23.0,N/A,,Scattered Clouds,320,2013-09-08 15:36:00
11:58 AM,74.3,60.1,61,29.82,10.0,NW,18.4,28.8,N/A,,Partly Cloudy,320,2013-09-08 15:58:00
12:58 PM,74.1,59.5,60,29.83,10.0,NW,19.6,25.3,N/A,,Partly Cloudy,310,2013-09-08 16:58:00
1:01 PM,75.2,59.0,57,29.82,10.0,North,20.7,26.5,N/A,,Partly Cloudy,350,2013-09-08 17:01:00
1:38 PM,73.4,53.6,50,29.84,10.0,NW,18.4,23.0,N/A,,Clear,310,2013-09-08 17:38:00
1:58 PM,74.1,50.0,43,29.86,10.0,NW,18.4,29.9,N/A,,Clear,310,2013-09-08 17:58:00
2:21 PM,73.4,48.2,41,29.85,10.0,North,17.3,-,N/A,,Clear,350,2013-09-08 18:21:00
2:58 PM,73.0,45.5,37,29.88,10.0,NW,16.1,19.6,N/A,,Clear,310,2013-09-08 18:58:00
3:09 PM,73.4,46.4,38,29.86,10.0,NNW,13.8,24.2,N/A,,Clear,340,2013-09-08 19:09:00
3:24 PM,73.4,46.4,38,29.86,10.0,North,13.8,19.6,N/A,,Clear,360,2013-09-08 19:24:00
3:29 PM,73.4,46.4,38,29.87,10.0,NW,13.8,19.6,N/A,,Clear,310,2013-09-08 19:29:00
3:58 PM,72.7,46.2,39,29.89,10.0,NNW,13.8,18.4,N/A,,Partly Cloudy,330,2013-09-08 19:58:00
4:58 PM,71.2,44.6,38,29.91,10.0,NNW,10.4,-,N/A,,Clear,340,2013-09-08 20:58:00
5:58 PM,69.6,43.3,39,29.94,10.0,North,13.8,17.3,N/A,,Clear,10,2013-09-08 21:58:00
6:58 PM,63.3,43.9,49,29.98,10.0,NE,6.9,-,N/A,,Clear,50,2013-09-08 22:58:00
7:58 PM,57.7,42.6,57,30.02,10.0,North,5.8,-,N/A,,Clear,10,2013-09-08 23:58:00
8:58 PM,55.4,43.2,63,30.06,10.0,NNE,3.5,-,N/A,,Clear,30,2013-09-09 00:58:00
9:58 PM,51.8,44.2,75,30.09,10.0,North,2.3,-,N/A,,Clear,360,2013-09-09 01:58:00
10:58 PM,49.6,44.4,82,30.12,10.0,Calm,Calm,-,N/A,,Clear,0,2013-09-09 02:58:00
11:58 PM,44.4,42.1,91,30.13,10.0,NNE,3.5,-,N/A,,Clear,30,2013-09-09 03:58:00